Location: Aulnoy
(48.8410°N, 3.0967°E)
Time: 23:16:50
(UTC+00:00)

CZ-4B DEB - Pass Details

Date: 09 February 2023
Orbit: 839 x 859 km, 99.1° (Epoch: 01 April)

Event Time Altitude Azimuth Distance (km) Brightness Sun altitude
Rises 18:14:36 0° 168° (SSE) 3,382 7.3 -13.0°
Reaches altitude 10° 18:16:57 10° 170° (S) 2,453 6.6 -13.4°
Maximum altitude 18:22:23 75° 256° (WSW) 878 4.4 -14.3°
Drops below altitude 10° 18:27:54 10° 342° (NNW) 2,481 6.8 -15.2°
Sets 18:30:18 0° 344° (NNW) 3,424 7.5 -15.6°
